Location: Diebersbach
(48.5163°N, 8.0558°E)
Time: 00:02:51
(UTC+00:00)

FENGYUN 1C DEB - Pass Details

Date: 06 February 2022
Orbit: 690 x 984 km, 98.6° (Epoch: 23 May)

Event Time Altitude Azimuth Distance (km) Brightness Sun altitude
Rises 16:57:54 0° 151° (SSE) 3,676 ? -4.5°
Reaches altitude 10° 17:00:24 10° 148° (SSE) 2,736 ? -4.9°
Maximum altitude 17:06:29 61° 69° (ENE) 1,105 ? -5.8°
Drops below altitude 10° 17:12:28 10° 352° (N) 2,685 ? -6.8°
Sets 17:14:53 0° 349° (NNW) 3,604 ? -7.2°
